Location: Windsor
(43.2292°N, 89.3015°W)
Time: 08:37:37
(UTC+00:00)

Tiros 1 - Pass Details

Date: 31 May 2022
Orbit: 629 x 663 km, 48.4° (Epoch: 04 July)

Event Time Altitude Azimuth Distance (km) Brightness Sun altitude
Exits shadow 06:10:05 32° 276° (W) 1,088 8.3 -24.8°
Maximum altitude 06:12:03 59° 343° (NNW) 729 7.6 -24.7°
Drops below altitude 10° 06:16:39 10° 63° (ENE) 2,020 10.1 -24.7°
Sets 06:19:01 0° 68° (ENE) 2,934 10.9 -24.6°
